This demonstration page uses our WeatherBlox Daily Observations layout. Learn more.

Left ArrowRight Arrow

Hourly Observations for May 31, 2021

Temp ( °F °C ) Dew Point ( °F °C ) Humidity (%) Winds ( mph kmh ) Pressure ( in mb ) Visibility ( mi km ) Precip ( " mm )
12:15 am 00:15 Clear 52 11 46 7.8 81 81 Calm 30.29 1026 10 16 0.00 0.00
12:35 am 00:35 Clear 53 11.4 45 7.4 77 77 Calm 30.29 1026 10 16 0.00 0.00
12:55 am 00:55 Clear 53 11.7 45 7.1 74 74 Calm 30.29 1026 10 16 0.00 0.00
1:15 am 01:15 Clear 52 11 46 7.5 79 79 Calm 30.30 1026 10 16 0.00 0.00
1:35 am 01:35 Clear 53 11.5 46 7.5 77 77 Calm 30.30 1026 10 16 0.00 0.00
1:55 am 01:55 Clear 51 10.8 47 8.1 84 84 Calm 30.29 1026 10 16 0.00 0.00
2:15 am 02:15 Clear 51 10.5 46 8 85 85 Calm 30.29 1026 10 16 0.00 0.00
2:35 am 02:35 Clear 51 10.7 46 8 84 84 Calm 30.29 1026 10 16 0.00 0.00
2:55 am 02:55 Clear 51 10.5 46 8 85 85 S 3 6 30.29 1026 10 16 0.00 0.00
3:15 am 03:15 Clear 50 10.2 47 8.2 88 88 S 5 7 30.29 1026 10 16 0.00 0.00
3:35 am 03:35 Clear 51 10.5 47 8.2 86 86 S 3 6 30.29 1026 10 16 0.00 0.00
3:55 am 03:55 Clear 51 10.4 47 8.3 87 87 Calm 30.30 1026 10 16 0.00 0.00
4:15 am 04:15 Clear 51 10.5 47 8.4 87 87 Calm 30.29 1026 10 16 0.00 0.00
4:35 am 04:35 Clear 51 10.3 47 8.1 86 86 Calm 30.31 1026 10 16 0.00 0.00
4:55 am 04:55 Clear 51 10.3 47 8.2 87 87 Calm 30.32 1027 10 16 0.00 0.00
5:15 am 05:15 Clear 49 9.5 47 8.2 92 92 Calm 30.32 1027 10 16 0.00 0.00
5:35 am 05:35 Clear 49 9.3 47 8.5 95 95 Calm 30.33 1027 10 16 0.00 0.00
5:55 am 05:55 Clear 49 9.5 48 8.7 95 95 Calm 30.33 1027 10 16 0.00 0.00
6:15 am 06:15 Clear 49 9.5 48 8.7 95 95 Calm 30.32 1027 10 16 0.00 0.00
6:35 am 06:35 Sunny 49 9.6 48 8.8 95 95 Calm 30.32 1027 10 16 0.00 0.00
6:55 am 06:55 Sunny 50 10 47 8.6 91 91 S 3 6 30.33 1027 10 16 0.00 0.00
7:15 am 07:15 Sunny 50 10.2 48 9 92 92 Calm 30.33 1027 10 16 0.00 0.00
7:35 am 07:35 Sunny 51 10.7 48 9 89 89 Calm 30.34 1027 10 16 0.00 0.00
7:55 am 07:55 Sunny 52 11.3 48 9.1 86 86 Calm 30.35 1028 10 16 0.00 0.00
8:15 am 08:15 Sunny 54 12 49 9.3 84 84 SSE 5 7 30.34 1028 10 16 0.00 0.00
8:35 am 08:35 Sunny 54 12.2 49 9.4 83 83 SSE 5 7 30.34 1028 10 16 0.00 0.00
8:55 am 08:55 Sunny 55 12.7 49 9.2 79 79 Calm 30.34 1027 10 16 0.00 0.00
9:20 am 09:20 Sunny 56 13.5 48 9.1 75 75 S 7 11 30.35 1028 10 16 0.00 0.00
9:35 am 09:35 Sunny 56 13.6 48 8.8 73 73 S 6 9 30.35 1028 10 16 0.00 0.00
9:55 am 09:55 Sunny 57 14.1 48 9 72 72 S 7 11 30.35 1028 10 16 0.00 0.00
10:15 am 10:15 Sunny 58 14.5 48 9 70 70 S 5 7 30.34 1028 10 16 0.00 0.00
10:35 am 10:35 Sunny 58 14.7 47 8.4 66 66 S 6 9 30.33 1027 10 16 0.00 0.00
10:55 am 10:55 Sunny 60 15.7 48 8.9 64 64 S 6 9 30.33 1027 10 16 0.00 0.00
11:15 am 11:15 Sunny 62 16.5 47 8.4 59 59 S 6 9 30.32 1027 10 16 0.00 0.00
11:35 am 11:35 Sunny 63 17.3 47 8.3 56 56 SSE 7 11 30.31 1026 10 16 0.00 0.00
11:55 am 11:55 Sunny 64 18 46 8 52 52 SSE 8 13 30.29 1026 10 16 0.00 0.00
12:15 pm 12:15 Sunny 65 18.5 46 8 51 51 S 7 11 30.29 1026 10 16 0.00 0.00
12:35 pm 12:35 Sunny 65 18.3 44 6.9 48 48 SE 3 6 30.29 1026 10 16 0.00 0.00
12:55 pm 12:55 Sunny 66 18.8 46 7.5 48 48 SSW 6 9 30.29 1026 10 16 0.00 0.00
1:15 pm 13:15 Sunny 66 19.1 46 7.7 48 48 E 3 6 30.28 1025 10 16 0.00 0.00
1:35 pm 13:35 Sunny 66 18.7 43 6 44 44 SSE 5 7 30.28 1025 10 16 0.00 0.00
1:55 pm 13:55 Sunny 66 18.8 45 7 46 46 Calm 30.27 1025 10 16 0.00 0.00
2:15 pm 14:15 Sunny 66 19 44 6.9 46 46 SSE 6 9 30.27 1025 10 16 0.00 0.00
2:35 pm 14:35 Partly Cloudy 66 19 44 6.8 45 45 SE 5 7 30.26 1025 10 16 0.00 0.00
2:55 pm 14:55 Mostly Cloudy 66 19.1 45 7.4 47 47 S 6 9 30.25 1024 10 16 0.00 0.00
3:15 pm 15:15 Mostly Cloudy 67 19.5 45 7 44 44 S 3 6 30.25 1024 10 16 0.00 0.00
3:35 pm 15:35 Partly Cloudy 68 19.8 45 7.3 44 44 SE 3 6 30.25 1024 10 16 0.00 0.00
3:55 pm 15:55 Sunny 67 19.7 44 6.9 44 44 S 8 13 30.25 1024 10 16 0.00 0.00
4:15 pm 16:15 Mostly Cloudy 67 19.3 42 5.8 41 41 SSW 6 9 30.25 1024 10 16 0.00 0.00
4:35 pm 16:35 Mostly Cloudy 67 19.2 43 6.3 43 43 SSE 5 7 30.24 1024 10 16 0.00 0.00
4:55 pm 16:55 Partly Cloudy 67 19.6 44 6.7 43 43 S 3 6 30.24 1024 10 16 0.00 0.00
5:15 pm 17:15 Sunny 67 19.7 44 6.9 44 44 Calm 30.24 1024 10 16 0.00 0.00
5:35 pm 17:35 Sunny 69 20.5 43 6.3 40 40 Calm 30.23 1024 10 16 0.00 0.00
5:55 pm 17:55 Sunny 68 20.2 43 6 40 40 Calm 30.24 1024 10 16 0.00 0.00
6:15 pm 18:15 Partly Cloudy 68 20.1 42 5.8 39 39 Calm 30.24 1024 10 16 0.00 0.00
6:35 pm 18:35 Sunny 68 20 43 6.2 41 41 Calm 30.24 1024 10 16 0.00 0.00
6:55 pm 18:55 Sunny 67 19.5 44 6.6 43 43 Calm 30.23 1024 10 16 0.00 0.00
7:15 pm 19:15 Partly Cloudy 67 19.7 45 7.2 44 44 W 3 6 30.23 1024 10 16 0.00 0.00
7:35 pm 19:35 Sunny 67 19.5 43 5.9 41 41 Calm 30.22 1023 10 16 0.00 0.00
7:55 pm 19:55 Partly Cloudy 67 19.6 45 7.4 45 45 Calm 30.23 1024 10 16 0.00 0.00
8:15 pm 20:15 Partly Cloudy 68 19.8 44 6.9 43 43 Calm 30.22 1023 10 16 0.00 0.00
8:35 pm 20:35 Partly Cloudy 67 19.3 44 6.5 43 43 Calm 30.22 1023 10 16 0.00 0.00
8:55 pm 20:55 Partly Cloudy 64 18 47 8.6 54 54 Calm 30.22 1023 10 16 0.00 0.00
9:15 pm 21:15 Clear 62 16.4 49 9.4 63 63 NNW 5 7 30.23 1024 10 16 0.00 0.00
9:35 pm 21:35 Clear 61 16.1 46 8 59 59 NNW 5 7 30.23 1024 10 16 0.00 0.00
9:55 pm 21:55 Partly Cloudy 60 15.5 49 9.5 68 68 Calm 30.22 1023 10 16 0.00 0.00
10:15 pm 22:15 Partly Cloudy 59 15 50 10.2 73 73 Calm 30.22 1023 10 16 0.00 0.00
10:35 pm 22:35 Clear 58 14.5 49 9.6 73 73 Calm 30.23 1024 10 16 0.00 0.00
10:55 pm 22:55 Partly Cloudy 57 13.9 50 10.1 78 78 Calm 30.24 1024 10 16 0.00 0.00
11:15 pm 23:15 Partly Cloudy 56 13.4 52 10.9 85 85 Calm 30.24 1024 10 16 0.00 0.00
11:35 pm 23:35 Partly Cloudy 55 13 51 10.8 87 87 Calm 30.23 1024 10 16 0.00 0.00
11:55 pm 23:55 Partly Cloudy 56 13.1 51 10.5 84 84 Calm 30.23 1024 10 16 0.00 0.00

Powered by AerisWeather